Weather History for Rochester, NH

Change the Weather History Date:

Thursday, October 10, 2013

  Actual Average (KSFM) Record (KSFM)
Temperature  
Mean Temperature 49 °F -  
Max Temperature 61 °F 59 °F 80 °F (2011)
Min Temperature 37 °F 37 °F 28 °F (2000)
Degree Days  
Heating Degree Days 16    
Moisture  
Dew Point 43 °F    
Average Humidity 79    
Maximum Humidity 97    
Minimum Humidity 49    
Precipitation  
Precipitation 0.00 in - - ()
Sea Level Pressure  
Sea Level Pressure 30.28 in    
Wind  
Wind Speed 3 mph (NW)    
Max Wind Speed 6 mph    
Max Gust Speed -    
Visibility 10 miles    
Events      
Averages and records for this station are not official NWS values.
T = Trace of Precipitation, MM = Missing Value Source: NWS Daily Summary

Daily Weather History Graph

Daily Weather History Graph

Search for Another Location

Airport:

Trip Planner

Search our weather history database for the weather conditions in past years. The results will help you decide how hot, cold, wet, or windy it might be!

Date:

Astronomy

Oct. 10, 2013 Rise Set
Actual Time 6:51 AM EDT 6:08 PM EDT
Civil Twilight 6:23 AM EDT 6:37 PM EDT
Nautical Twilight 5:50 AM EDT 7:10 PM EDT
Astronomical Twilight 5:17 AM EDT 7:43 PM EDT
Moon 12:46 PM EDT (10/10) 10:37 PM EDT (10/10)
Length of Visible Light 12h 14m
Length of Day
11h 16m
Waxing Crescent, 35% of the Moon is Illuminated
Oct 10
Waxing Crescent
Oct 11
First Quarter
Oct 18
Full
Oct 26
Last Quarter
Nov 3
New

Hourly Weather History & Observations

Time (EDT) Temp. Windchill Dew Point Humidity Pressure Visibility Wind Dir Wind Speed Gust Speed Precip Events Conditions
12:51 AM 41.0 °F 37.1 °F 39.0 °F 93% 30.36 in 10.0 mi NW 5.8 mph - N/A   Clear
1:51 AM 39.9 °F 36.7 °F 37.9 °F 93% 30.35 in 10.0 mi NW 4.6 mph - N/A   Clear
2:51 AM 39.9 °F 36.7 °F 39.0 °F 97% 30.34 in 10.0 mi NW 4.6 mph - N/A   Clear
3:51 AM 39.9 °F - 37.9 °F 93% 30.33 in 10.0 mi Calm Calm - N/A   Clear
4:51 AM 39.9 °F - 37.0 °F 89% 30.33 in 10.0 mi Calm Calm - N/A   Clear
5:51 AM 37.0 °F 33.3 °F 35.1 °F 93% 30.32 in 10.0 mi NW 4.6 mph - N/A   Clear
6:51 AM 37.9 °F 35.5 °F 36.0 °F 93% 30.32 in 10.0 mi NNW 3.5 mph - N/A   Clear
7:51 AM 39.0 °F 34.8 °F 37.0 °F 93% 30.33 in 10.0 mi NW 5.8 mph - N/A   Clear
8:51 AM 46.0 °F 43.9 °F 43.0 °F 89% 30.33 in 10.0 mi NNW 4.6 mph - N/A   Clear
9:51 AM 53.1 °F - 46.0 °F 77% 30.33 in 10.0 mi Calm Calm - N/A   Clear
10:51 AM 55.0 °F - 43.0 °F 64% 30.31 in 10.0 mi Calm Calm - N/A   Clear
11:51 AM 57.9 °F - 39.9 °F 51% 30.31 in 10.0 mi Calm Calm - N/A   Clear
12:51 PM 59.0 °F - 39.9 °F 49% 30.29 in 10.0 mi Calm Calm - N/A   Clear
1:51 PM 61.0 °F - 42.1 °F 50% 30.26 in 10.0 mi Calm Calm - N/A   Clear
2:51 PM 60.1 °F - 41.0 °F 49% 30.25 in 10.0 mi Calm Calm - N/A   Clear
3:51 PM 60.1 °F - 45.0 °F 57% 30.25 in 10.0 mi Calm Calm - N/A   Clear
4:51 PM 59.0 °F - 48.0 °F 67% 30.23 in 10.0 mi Calm Calm - N/A   Clear
5:51 PM 55.9 °F - 48.9 °F 77% 30.22 in 10.0 mi Calm Calm - N/A   Clear
6:51 PM 55.0 °F - 48.0 °F 77% 30.23 in 10.0 mi Calm Calm - N/A   Clear
7:51 PM 53.1 °F - 48.9 °F 86% 30.22 in 10.0 mi Calm Calm - N/A   Clear
8:51 PM 52.0 °F - 48.9 °F 89% 30.23 in 10.0 mi Calm Calm - N/A   Clear
9:51 PM 51.1 °F - 48.9 °F 92% 30.22 in 10.0 mi Calm Calm - N/A   Clear
10:51 PM 50.0 °F - 48.0 °F 93% 30.20 in 10.0 mi Calm Calm - N/A   Clear
11:51 PM 48.9 °F - 46.0 °F 90% 30.18 in 10.0 mi Calm Calm - N/A   Clear